[Iaude] MPEC T85: 2023 TO2 [a=1.85,e=0.52,i=5.4,H=26.4]

mpec at marsden.cfa.harvard.edu mpec at marsden.cfa.harvard.edu
Sat Oct 7 07:34:39 EDT 2023


M.P.E.C. 2023-T85                               Issued 2023 October 7, 11:33 UT

     The Minor Planet Electronic Circulars contain information on unusual
         minor planets, routine data on comets and natural satellites,
         and occasional editorial announcements.  They are published
    on behalf of Division F of the International Astronomical Union by the
          Minor Planet Center, Smithsonian Astrophysical Observatory,
                          Cambridge, MA 02138, U.S.A.
			  
             Prepared using the Tamkin Foundation Computer Network

                              MPC at CFA.HARVARD.EDU
            URL https://www.minorplanetcenter.net/    ISSN 1523-6714

                                    2023 TO2                                    


Observations:
     K23T02O* C2023 10 05.44111501 28 46.193-23 03 09.37         20.06wXET085F51
     K23T02O  C2023 10 05.45208901 28 52.713-23 00 12.05         20.34wXET085F51
     K23T02O  C2023 10 05.46301301 28 59.197-22 57 14.99         20.23wXET085F51
     K23T02O  C2023 10 05.54089901 29 44.779-22 36 24.21         19.92GVET085F51
     K23T02O  C2023 10 05.54154001 29 45.153-22 36 13.99         19.97GVET085F51
     K23T02O mC2023 10 06.42328501 38 05.435-19 22 24.10               VET085I52
     K23T02O mC2023 10 06.42378001 38 05.586-19 22 17.65         20.78GVET085I52
     K23T02O mC2023 10 06.42425001 38 05.723-19 22 13.22               VET085I52
     K23T02O mC2023 10 06.42473001 38 05.968-19 22 06.74         20.06GVET085I52
     K23T02O KB2023 10 06.99004001 42 11.07 -17 46 54.2          20.1 GVET085I93
     K23T02O KB2023 10 06.99629601 42 12.97 -17 45 56.4          20.6 GVET085I93
     K23T02O KB2023 10 07.00242101 42 14.81 -17 45 00.0          20.3 GVET085I93

Observer details:
F51 Pan-STARRS 1, Haleakala.  Observers J. Bulger, T. Lowe, P. Minguez, A.
    Schultz, I. Smith, K. Chambers.  Measurers K. Chambers, T. de Boer, J.
    Bulger, J. Fairlamb, H. Gao, M. Huber, C.-C. Lin, T. Lowe, E. Magnier, P.
    Minguez, Y. Ramanjooloo, A. Schultz, I. Smith, R. Wainscoat, R. Weryk, S.
    Chastel.  1.8-m Ritchey-Chretien + CCD.
I52 Steward Observatory, Mt. Lemmon Station.  Observer D. Rankin.  Measurers
    E. C. Beshore, D. Fay, J. B. Fazekas, D. C. Fuls, A. R. Gibbs, A. D.
    Grauer, H. Groeller, J. K. Hogan, R. A. Kowalski, S. M. Larson, G. J.
    Leonard, D. Rankin, R. L. Seaman, F. C. Shelly, K. W. Wierzchos.  1.0-m
    prime focus + CCD.
I93 St Pardon de Conques.  Observer F. Losse.  0.40-m f/3.7 reflector + CMO.

Orbital elements:
2023 TO2                                                 Earth MOID = 0.0067 AU
Epoch 2023 Sept. 13.0 TT = JDT 2460200.5                Bell                    
M   6.82621              (2000.0)            P               Q                  
n   0.39039013     Peri.  136.54132     +0.75707949     +0.65330815             
a   1.8541157      Node   182.67845     -0.62209117     +0.71882779             
e   0.5204050      Incl.    5.36733     -0.19958262     +0.23764483             
P   2.52           H   26.48          G   0.15           U   9                  
Residuals in seconds of arc
231005 F51  0.1+  0.1+    231005 F51  0.0   0.1+    231006 I52  0.1+  0.5+
231005 F51  0.2-  0.4-    231006 I52  0.5+  0.4-    231006 I93  0.1+  0.4-
231005 F51  0.0   0.0     231006 I52  0.1-  0.4+    231006 I93  0.1+  0.0
231005 F51  0.0   0.1+    231006 I52  0.7-  0.5-    231007 I93  0.1-  0.3+

Ephemeris:
2023 TO2                 a,e,i = 1.85, 0.52, 5                   q = 0.8892
Date    TT    R. A. (2000) Decl.     Delta      r    Elong.  Phase     V
2023 09 07    14 13 26.8 +00 00 22   0.1748  0.9019    48.6   123.0    27.6
...
2023 09 22    14 34 40.9 -05 37 25   0.06761 0.9536    40.5   136.8    27.0
...
2023 09 30    16 06 50.6 -38 04 52   0.01579 0.9944    62.2   117.0    22.1
...
2023 10 06    01 34 37.7 -20 44 34   0.03355 1.0296   151.7    27.4    20.4
2023 10 07    01 42 11.8 -17 42 18   0.04019 1.0358   153.5    25.5    20.7
2023 10 08    01 47 24.1 -15 30 40   0.04695 1.0421   154.9    24.1    21.1
...
2023 10 14    02 00 27.4 -09 19 01   0.08894 1.0814   159.3    19.0    22.4
...
2023 10 22    02 04 44.6 -06 15 15   0.1480  1.1372   162.2    15.5    23.5
...
2023 11 06    02 06 52.0 -03 10 08   0.2712  1.2487   159.2    16.4    25.0

M. P. C. Staff               (C) Copyright 2023 MPC           M.P.E.C. 2023-T85





More information about the Iaude mailing list